Location: Dampvalley
(47.9094°N, 6.1967°E)
Time: 02:20:53
(UTC+00:00)

SO-50 - Pass Details

Date: 08 December 2021
Orbit: 595 x 689 km, 64.6° (Epoch: 24 January)

Event Time Altitude Azimuth Distance (km) Brightness Sun altitude
Rises 16:14:09 0° 314° (NW) 3,028 ? -5.4°
Reaches altitude 10° 16:16:40 10° 304° (NW) 2,122 ? -5.7°
Maximum altitude 16:20:53 31° 243° (WSW) 1,204 ? -6.4°
Drops below altitude 10° 16:25:08 10° 183° (S) 2,133 ? -7.0°
Sets 16:27:40 0° 173° (S) 3,046 ? -7.4°
